Wind_Speed
2 5 5 4 4 3 3 4 6 5 7 7 12 18 18 17 16 17 14 10 9 7 7 3 4 7 10 15 18 15 9 12 12 10 12 18 22 23 29 41 39 37 32 25
3 8 6 5 3 4 4 5 7 7 6 11 14 20 18 17 16 17 16 14 9 5 3 3 4 8 11 15 21 22 19 13 9 17 31 16 12 18 27 27 38 31 27 19
4 1 5 4 3 5 5 7 6 9 8 12 12 12 5 7 11 10 12 9 5 6 9 4 8 11 12 15 18 22 25 20 15 16 13 21 16 15 12 20 22 31 26 20
5 0 5 5 4 6 8 5 6 8 8 8 6 8 10 14 6 5 4 8 10 4 3 8 9 12 15 19 20 22 27 27 19 17 12 15 18 19 22 19 22 29 33 35
4 3 6 8 10 9 6 1 6 8 12 11 13 7 4 3 6 1 6 7 9 6 6 7 10 16 18 18 22 24 26 32 29 25 19 16 18 22 24 21 22 28 34 33
13 1 4 7 2 8 3 4 8 4 4 6 5 7 4 4 8 5 10 9 6 7 6 7 11 14 18 20 19 21 27 29 30 23 22 20 22 23 22 21 22 23 23 26
5 6 2 4 6 3 3 3 6 3 4 4 4 9 11 10 11 15 16 13 9 5 7 9 11 14 20 24 27 25 23 29 30 24 22 21 25 27 26 26 23 21 23 25
7 9 6 5 5 3 4 4 5 5 4 7 10 9 3 6 10 13 13 8 10 10 11 13 11 14 22 25 25 27 29 28 27 25 26 23 26 26 25 26 25 26 26 27
5 6 2 6 1 3 4 7 2 7 9 8 7 12 13 15 8 5 5 3 9 10 15 13 15 17 19 20 25 26 30 29 27 27 28 30 31 27 29 30 30 32 28 25
1 6 5 4 1 5 9 8 4 2 4 6 6 17 12 15 11 5 8 12 13 18 17 12 10 17 23 20 22 26 29 28 28 29 29 31 30 33 33 32 31 32 28 27
4 5 3 2 7 7 5 7 4 3 4 4 8 6 3 9 13 11 13 10 19 19 16 14 13 19 21 26 31 21 29 31 30 28 29 31 33 32 31 31 32 30 29 31
5 3 9 14 11 7 8 11 10 6 6 7 11 18 13 16 12 7 14 19 19 15 14 13 15 20 25 26 25 25 29 32 30 29 29 31 34 32 30 32 30 30 30 27
6 4 6 7 4 4 6 10 10 9 4 15 11 12 3 8 19 21 21 16 15 14 16 14 13 16 20 28 25 27 32 32 30 29 30 32 32 32 31 31 30 29 28 26
4 6 12 14 10 1 5 9 12 13 9 16 18 30 27 26 22 20 18 17 13 15 13 13 13 17 21 26 24 25 31 32 31 30 30 33 32 34 33 31 29 29 28 28
4 13 15 19 22 21 24 26 24 22 23 18 23 23 28 23 23 19 17 13 13 16 13 13 15 17 19 23 26 28 30 33 32 31 31 32 32 33 30 28 28 29 29 28
6 10 12 15 13 15 19 25 25 26 26 25 27 27 25 21 15 14 12 11 14 16 17 15 16 19 21 21 26 32 34 37 35 36 31 33 30 31 30 29 29 29 27 26
5 5 3 12 9 11 13 25 23 22 19 17 17 18 15 16 15 14 14 13 16 19 19 16 18 17 18 25 25 33 38 42 40 37 36 33 33 32 30 30 31 28 27 27
17 13 7 10 11 10 8 3 5 7 11 14 16 18 14 13 15 12 14 16 17 17 17 18 16 15 24 26 27 34 42 46 39 41 48 33 34 32 30 29 28 27 28 28
19 15 6 4 9 13 14 8 2 5 12 7 12 9 16 19 17 16 14 17 19 18 19 17 23 24 25 23 22 34 35 38 49 26 23 29 32 30 31 28 29 28 27 25
9 10 4 4 5 4 2 2 3 2 12 6 9 16 20 19 16 16 16 20 20 18 19 18 25 26 27 25 25 27 26 31 14 13 20 25 27 28 29 28 29 28 27 27
3 4 10 9 6 7 5 3 4 4 6 12 19 20 21 18 17 24 22 22 20 18 20 25 25 23 27 27 31 25 27 21 24 21 13 18 22 22 26 28 29 30 28 31
2 3 2 4 5 6 3 2 5 13 19 17 23 21 19 22 25 22 23 23 22 21 20 22 21 23 28 28 27 24 20 31 19 17 6 15 18 20 24 29 28 30 33 29
3 3 4 4 5 13 18 16 15 16 17 22 17 17 18 21 25 24 22 22 21 20 18 24 21 22 26 25 23 21 28 31 10 9 10 15 19 20 23 29 29 29 28 26
3 2 4 8 2 14 21 19 17 19 18 18 21 20 20 24 27 28 24 22 20 19 20 27 26 17 18 23 24 21 25 19 3 6 9 18 21 24 24 23 26 27 24 23
6 8 6 12 16 15 14 14 21 23 19 22 20 24 27 28 27 26 23 23 19 17 24 27 22 15 20 26 24 21 23 17 5 0 6 16 23 23 25 21 20 22 21 24
1 3 3 6 19 17 19 24 25 24 20 22 25 24 21 21 18 17 18 18 17 18 22 18 20 19 23 23 21 21 20 19 8 6 8 16 25 20 19 22 21 18 21 25
Wind_Direction
45 214 214 196 214 257 231 237 267 277 292 306 293 292 296 286 270 264 262 262 272 260 255 289 354 346 346 338 341 345 324 332 337 249 245 239 240 237 236 240 244 248 251 257
237 243 224 209 252 219 214 257 281 284 272 299 293 291 283 276 267 260 254 239 239 213 256 282 320 337 337 331 331 330 330 341 308 292 248 245 245 239 243 245 240 236 239 253
234 136 156 229 241 221 242 256 285 292 313 287 298 284 239 231 279 251 242 236 270 282 303 323 336 339 344 339 331 327 324 313 296 278 268 246 246 246 233 229 227 228 231 208
253 182 204 211 244 220 276 217 259 276 298 306 336 287 275 280 297 223 308 315 302 292 300 316 329 335 344 331 322 321 327 319 308 301 275 254 246 243 241 230 235 231 223 223
222 219 245 255 268 191 260 215 267 273 277 293 260 257 271 209 254 342 296 285 291 287 314 329 339 334 325 323 318 317 316 319 313 309 298 275 255 249 250 247 236 242 233 231
256 227 246 251 217 195 140 259 271 228 248 247 239 241 197 221 203 242 309 297 302 308 328 330 328 326 323 321 314 311 311 307 310 301 298 282 258 252 250 234 230 222 225 223
225 226 215 209 208 155 166 284 299 256 208 268 165 284 255 217 233 280 295 295 312 307 316 321 323 325 327 320 312 306 298 294 298 292 290 283 268 258 246 244 238 217 213 207
254 250 204 177 239 250 218 245 256 278 266 290 287 255 238 212 271 286 286 279 297 312 329 321 320 322 326 324 316 308 302 295 293 282 286 281 271 261 255 248 237 233 223 223
202 243 252 220 208 216 158 218 330 262 263 273 246 262 270 268 287 306 301 275 301 315 323 315 319 322 324 325 322 317 308 298 289 285 287 282 276 257 248 246 245 236 231 217
232 275 235 268 273 209 234 147 202 195 258 265 259 277 266 288 298 324 318 325 336 326 318 300 298 316 322 322 313 326 315 297 289 281 274 270 265 260 248 243 236 230 223 219
176 236 231 245 214 234 195 211 196 243 232 270 296 266 233 278 292 303 314 321 323 319 313 296 292 306 311 318 309 308 312 301 292 284 273 264 258 250 241 236 233 224 219 224
198 227 263 274 269 260 247 244 221 231 203 234 275 277 272 274 293 305 305 315 317 314 309 291 289 305 309 314 308 307 309 301 293 291 278 263 256 247 233 228 224 216 210 212
179 213 282 281 169 148 209 201 208 230 252 245 262 268 137 240 294 295 302 303 305 308 305 303 297 306 308 309 308 308 307 298 294 293 279 270 252 240 226 221 216 210 204 195
151 242 244 257 279 271 251 220 221 249 259 265 251 278 287 288 293 296 300 303 297 301 300 306 311 312 309 304 297 297 304 296 295 294 283 270 246 229 218 213 206 201 192 186
250 255 253 259 265 265 266 267 266 256 253 255 270 274 280 294 302 299 294 283 297 304 293 298 310 315 315 302 296 298 306 300 299 295 290 275 241 220 209 202 196 191 184 184
200 260 254 260 263 258 261 262 259 256 258 260 263 266 272 285 300 292 276 273 299 306 291 286 305 306 309 311 299 304 309 301 301 294 283 279 235 215 200 189 187 178 179 174
212 222 236 263 278 281 268 255 256 256 248 245 252 271 305 305 309 300 288 281 301 309 300 290 304 301 306 311 305 316 307 303 298 285 284 262 215 200 187 178 177 170 165 162
241 244 242 270 280 249 254 304 255 256 260 241 262 276 301 317 312 286 275 287 303 305 298 293 299 299 306 309 312 313 300 289 287 281 266 208 196 185 171 166 163 157 158 164
224 227 235 235 222 283 295 285 245 210 277 276 279 314 322 318 307 279 279 299 303 298 300 297 297 303 302 298 290 282 286 285 290 248 180 182 174 164 154 157 154 154 154 156
197 216 205 216 253 263 283 103 144 187 278 114 340 318 318 316 301 296 309 304 302 297 300 297 300 304 302 305 307 291 288 292 0 108 143 153 155 153 148 149 149 150 149 142
172 171 218 243 262 271 281 253 199 245 339 324 326 315 303 297 291 299 296 300 298 296 298 298 304 304 310 315 322 320 328 327 344 358 107 125 136 137 140 142 140 138 133 131
261 290 198 229 245 264 57 316 292 315 305 311 308 302 294 299 295 296 295 297 303 303 301 298 303 309 311 320 326 320 321 324 338 340 73 122 125 135 141 132 132 131 128 127
298 312 297 242 269 311 310 309 311 308 295 291 291 288 293 286 288 289 291 294 296 299 297 292 295 302 301 310 318 313 309 318 340 337 115 123 125 123 128 130 134 128 133 136
280 294 261 310 283 298 303 300 297 292 290 294 300 297 294 291 289 290 292 292 295 296 295 295 299 294 292 298 302 295 300 297 336 28 106 125 120 120 119 124 133 133 138 142
283 307 282 274 285 301 273 288 292 294 292 294 298 299 295 292 285 282 291 293 295 296 291 290 285 281 290 297 294 298 306 305 185 229 111 122 119 116 111 110 121 139 145 147
281 312 287 287 299 289 287 293 297 304 302 301 303 294 291 291 296 295 286 285 284 279 280 267 268 278 288 285 287 296 304 298 223 225 164 128 113 105 115 116 101 131 147 155
Height
776 775 776 774 776 777 777 778 778 771 764 768 761 760 754 749 747 745 742 740 740 739 739 737 736 736 736 736 733 735 732 726 733 739 737 737 731 732 734 734 737 741 743 750
778 777 770 772 774 777 778 777 773 770 766 766 759 755 749 742 739 736 736 736 737 737 739 736 736 735 734 733 731 730 728 724 732 735 741 729 727 724 726 730 731 734 739 745
777 771 771 774 774 775 773 775 774 774 768 763 761 745 744 736 732 732 731 730 729 731 730 731 731 733 731 729 730 727 725 727 730 734 727 726 721 721 723 724 726 726 732 733
775 770 771 772 772 771 775 769 770 773 774 771 765 756 741 734 732 732 730 728 726 730 732 731 729 730 727 727 728 724 720 717 718 719 717 715 714 714 716 717 720 720 722 723
769 769 771 771 766 767 768 769 770 771 771 772 760 766 737 735 733 731 728 727 727 728 730 729 729 731 730 729 723 719 715 710 706 705 706 708 708 709 710 712 713 714 717 717
763 765 765 762 763 764 767 769 768 775 771 767 756 758 734 730 726 728 724 722 726 727 729 732 733 734 729 726 723 718 711 708 703 702 701 702 703 704 705 703 708 706 712 716
764 762 761 762 764 767 767 770 770 767 761 753 758 756 734 728 725 722 721 720 723 726 728 729 729 726 723 719 716 714 713 705 700 697 694 696 697 696 697 694 697 701 705 708
765 765 760 760 760 761 766 768 774 779 762 749 747 745 723 722 722 722 720 723 722 721 721 722 723 722 718 715 714 710 706 701 695 693 688 688 692 689 689 686 687 692 695 697
770 767 760 760 760 762 769 770 770 769 765 768 744 727 721 714 718 718 718 720 718 719 719 719 716 717 716 712 708 703 697 693 689 682 680 679 680 680 681 679 677 682 688 688
764 769 761 759 760 760 760 764 772 777 775 764 736 730 723 717 716 716 715 715 713 713 712 714 715 712 705 702 701 694 691 688 685 682 679 675 671 669 670 672 669 675 678 682
765 770 763 764 760 756 762 763 768 769 768 758 745 718 713 715 713 715 714 712 710 708 706 706 707 705 702 697 691 687 686 681 678 676 670 667 663 661 661 661 662 665 671 676
763 767 762 757 750 755 755 755 757 761 756 757 752 716 707 710 711 714 712 707 705 704 702 701 700 698 694 692 686 676 674 671 668 663 659 657 654 652 652 653 655 658 662 667
765 764 761 750 755 759 755 753 753 757 761 757 755 715 708 709 707 706 709 707 702 699 695 693 693 691 689 686 680 671 664 661 659 657 651 645 641 640 640 643 647 651 655 661
763 763 758 754 744 755 753 749 747 751 759 737 734 712 708 706 704 702 702 700 697 693 690 686 684 684 682 679 674 668 659 654 649 644 638 631 627 627 628 633 638 644 649 655
763 760 756 750 747 748 745 740 738 739 734 741 725 722 704 701 697 696 694 694 691 686 683 680 678 675 671 669 663 656 650 643 636 631 624 615 615 618 620 624 630 637 642 649
759 753 748 747 742 743 741 730 727 725 722 721 716 713 699 694 691 689 688 687 686 681 677 673 673 670 664 659 651 644 637 630 624 616 611 606 605 608 610 616 624 630 638 644
755 750 753 742 737 737 732 710 709 708 706 707 705 693 689 691 688 686 682 683 680 675 672 669 667 663 655 649 644 632 625 615 609 603 594 594 596 600 604 610 619 624 632 639
753 753 756 744 739 737 700 701 701 701 697 696 694 690 688 688 686 684 680 676 673 671 667 665 661 656 649 644 633 623 619 607 596 589 584 581 586 591 596 604 613 621 629 639
744 749 751 744 727 709 704 693 699 701 691 690 690 689 687 683 681 677 672 669 669 667 662 658 655 651 641 639 633 621 613 602 565 566 564 572 577 584 590 601 608 618 628 638
745 750 749 736 728 716 703 702 703 704 695 691 695 692 687 682 677 664 667 666 663 662 657 652 649 646 635 630 626 615 599 570 530 555 561 569 576 583 588 598 607 617 627 634
740 746 743 735 732 710 699 703 703 706 693 693 693 691 685 680 675 665 664 658 656 658 656 648 644 636 629 624 611 602 587 576 563 563 566 570 576 585 593 601 609 616 625 633
745 731 729 731 723 713 702 703 709 697 692 695 691 687 681 676 667 663 657 651 648 643 647 645 637 629 622 619 614 602 593 584 578 575 572 576 582 589 597 601 610 619 626 639
730 727 731 728 709 698 700 702 702 702 699 691 688 683 680 671 660 656 652 648 646 644 639 639 636 629 623 619 617 608 600 594 588 584 581 584 587 593 598 603 613 622 632 642
728 730 727 727 709 708 705 702 700 695 690 684 682 677 671 663 653 645 643 641 640 639 635 630 626 623 618 617 613 611 604 597 594 591 587 588 591 596 603 612 618 625 635 644
738 735 727 719 709 711 707 701 694 688 684 679 674 670 662 655 645 641 637 636 636 636 634 629 624 619 616 613 607 605 602 596 596 595 592 592 594 600 607 617 624 633 641 645
741 742 737 724 719 717 704 692 684 680 675 670 666 659 656 652 643 642 639 635 632 629 626 622 616 615 612 607 604 602 600 596 595 594 595 597 600 609 615 621 629 638 643 649